GW0234 Weather Reports


Display with metric or nautical units.
time (UTC)temp
F
wind
direction
speed
MPH
gust
MPH
rain 1hr
in
rain 24hr
in
rain mn
in
humidity
%
barometer
mb
20260831094606 65 360 1.0 3.0 0.00 0.14 0.10 92 1018.1
20260831093108 65 0 0.0 2.0 0.00 0.14 0.10 92 1018.1
20260831091605 65 0 0.0 2.0 0.00 0.14 0.10 92 1018.3
20260831090105 65 0 0.0 3.0 0.00 0.14 0.10 92 1018.4
20260831084637 65 0 0.0 1.0 0.00 0.14 0.10 92 1018.4
20260831083108 65 52 0.0 1.0 0.00 0.14 0.10 91 1018.5
20260831081610 65 0 0.0 1.0 0.00 0.14 0.10 91 1018.6
20260831080128 65 53 0.0 2.0 0.01 0.14 0.10 91 1018.3
20260831074607 65 0 0.0 2.0 0.05 0.14 0.10 92 1018.2
20260831073105 65 0 0.0 3.0 0.08 0.14 0.10 92 1018.4
20260831071614 65 0 0.0 1.0 0.09 0.14 0.10 91 1018.2
20260831070110 65 0 0.0 1.0 0.09 0.13 0.09 90 1018.6
20260831064604 65 0 0.0 0.0 0.05 0.09 0.05 90 1019.2
20260831063116 65 0 0.0 1.0 0.02 0.06 0.02 90 1019.2
20260831061608 65 0 0.0 1.0 0.01 0.05 0.01 90 1018.9
20260831060105 65 0 0.0 0.0 0.00 0.04 0.00 90 1019.1
20260831054605 66 0 0.0 1.0 0.00 0.04 0.00 90 1019.1
20260831053122 66 0 0.0 1.0 0.00 0.04 0.00 90 1019.2
20260831051605 66 0 0.0 1.0 0.00 0.04 0.00 90 1019.2
20260831050127 66 0 0.0 0.0 0.00 0.04 0.00 89 1019.2
20260831044602 66 0 0.0 1.0 0.00 0.04 0.00 89 1019.4
20260831043103 66 0 0.0 0.0 0.00 0.04 0.00 89 1019.1
20260831041621 66 0 0.0 0.0 0.00 0.04 0.00 89 1019.2
20260831040116 66 0 0.0 0.0 0.00 0.04 0.00 89 1019.4
20260831034602 67 0 0.0 0.0 0.00 0.04 0.04 89 1019.5
20260831033113 67 0 0.0 1.0 0.00 0.04 0.04 88 1019.7
20260831031606 67 0 0.0 1.0 0.00 0.04 0.04 88 1019.8
20260831030107 67 0 0.0 3.0 0.00 0.04 0.04 89 1020.0
20260831024606 67 9 1.0 3.0 0.01 0.04 0.04 88 1020.2
20260831023106 67 137 0.0 1.0 0.01 0.04 0.04 87 1020.6
20260831021605 68 0 0.0 2.0 0.01 0.04 0.04 87 1020.7
20260831020105 68 0 0.0 1.0 0.01 0.04 0.04 87 1020.8
20260831014606 68 0 1.0 3.0 0.00 0.03 0.03 87 1020.8
20260831013106 68 0 0.0 2.0 0.00 0.03 0.03 87 1020.4
20260831011603 68 0 0.0 1.0 0.00 0.03 0.03 86 1020.2
20260831010112 68 0 0.0 0.0 0.00 0.03 0.03 86 1019.9
20260831004608 69 0 0.0 2.0 0.00 0.03 0.03 86 1019.6
20260831003111 69 0 0.0 0.0 0.00 0.03 0.03 85 1019.0
20260831001605 69 0 0.0 0.0 0.00 0.03 0.03 84 1018.5
20260831000106 70 0 0.0 0.0 0.00 0.03 0.03 84 1018.4
20260830234608 71 0 0.0 2.0 0.00 0.03 0.03 83 1018.4
20260830233104 71 0 0.0 1.0 0.00 0.03 0.03 82 1018.4
20260830231626 72 0 0.0 1.0 0.00 0.03 0.03 82 1018.1
20260830230108 72 0 0.0 1.0 0.00 0.03 0.03 82 1018.2
20260830224611 73 0 0.0 1.0 0.00 0.03 0.03 82 1018.2
20260830223103 73 0 0.0 1.0 0.00 0.03 0.03 81 1018.4
20260830221606 73 0 0.0 2.0 0.00 0.03 0.03 80 1018.3
20260830220104 73 0 0.0 2.0 0.00 0.03 0.03 80 1018.4
20260830214606 73 0 0.0 1.0 0.00 0.03 0.03 81 1018.4
20260830213105 72 0 0.0 1.0 0.00 0.03 0.03 80 1018.4
20260830211606 73 0 0.0 0.0 0.00 0.03 0.03 81 1018.6
20260830210139 73 0 0.0 1.0 0.00 0.03 0.03 80 1018.8
20260830204611 73 0 0.0 1.0 0.00 0.03 0.03 79 1018.8
20260830203104 73 128 0.0 1.0 0.00 0.03 0.03 79 1019.1
20260830201605 73 0 0.0 3.0 0.00 0.03 0.03 79 1019.0
20260830200115 73 0 1.0 4.0 0.00 0.03 0.03 78 1019.0
20260830194648 73 177 0.0 3.0 0.00 0.03 0.03 80 1019.3
20260830193105 73 98 0.0 7.0 0.00 0.03 0.03 78 1019.5
20260830191615 73 0 0.0 4.0 0.00 0.03 0.03 80 1019.7
20260830190110 73 164 0.0 4.0 0.02 0.03 0.03 81 1019.8
20260830184614 74 0 1.0 2.0 0.03 0.03 0.03 79 1020.0
20260830183118 75 0 0.0 2.0 0.03 0.03 0.03 80 1020.0
20260830181603 75 0 0.0 1.0 0.03 0.03 0.03 79 1020.2
20260830180109 75 0 0.0 2.0 0.01 0.01 0.01 76 1020.3
20260830174605 75 158 0.0 4.0 0.00 0.00 0.00 74 1020.2
20260830173134 76 152 0.0 3.0 0.00 0.00 0.00 74 1020.4
20260830171602 76 0 0.0 2.0 0.00 0.00 0.00 75 1020.5
20260830170117 77 0 0.0 1.0 0.00 0.00 0.00 73 1020.5
20260830164603 78 0 0.0 1.0 0.00 0.00 0.00 73 1020.4
20260830163110 78 0 0.0 3.0 0.00 0.00 0.00 72 1020.4
20260830161630 78 0 0.0 3.0 0.00 0.00 0.00 69 1020.3
20260830160104 78 343 1.0 4.0 0.00 0.00 0.00 70 1020.4
20260830154606 78 0 0.0 3.0 0.00 0.00 0.00 71 1020.4
20260830153106 78 0 0.0 3.0 0.00 0.00 0.00 70 1020.4
20260830151604 78 0 0.0 6.0 0.00 0.00 0.00 69 1020.5
20260830150123 77 325 2.0 6.0 0.00 0.00 0.00 71 1020.3
20260830144606 76 0 0.0 8.0 0.00 0.00 0.00 74 1020.1
20260830143105 75 319 0.0 4.0 0.00 0.00 0.00 78 1020.0
20260830141602 74 0 0.0 1.0 0.00 0.00 0.00 82 1019.8
20260830134604 72 0 0.0 1.0 0.00 0.00 0.00 83 1019.7
20260830133103 70 0 0.0 1.0 0.00 0.00 0.00 88 1019.8
20260830131632 68 0 0.0 2.0 0.00 0.00 0.00 90 1019.8
20260830124603 64 0 0.0 2.0 0.00 0.00 0.00 93 1019.9
20260830123125 62 0 0.0 1.0 0.00 0.00 0.00 94 1019.9
20260830121607 59 0 0.0 1.0 0.00 0.00 0.00 93 1019.9
20260830120114 59 0 0.0 0.0 0.00 0.00 0.00 92 1019.8
20260830114614 59 0 0.0 0.0 0.00 0.00 0.00 92 1019.9
20260830113123 58 0 0.0 0.0 0.00 0.00 0.00 91 1019.9
20260830111610 58 0 0.0 0.0 0.00 0.00 0.00 91 1019.9
20260830110106 58 0 0.0 0.0 0.00 0.00 0.00 91 1019.9
20260830104618 58 0 0.0 0.0 0.00 0.00 0.00 91 1020.0
20260830103107 58 0 0.0 0.0 0.00 0.00 0.00 90 1019.9
20260830101602 58 0 0.0 0.0 0.00 0.00 0.00 91 1020.0
20260830100107 58 0 0.0 0.0 0.00 0.00 0.00 91 1020.0